📊 John's Weather Station

Last reading: 2020-08-06 10:07:43

TEMPERATURE

--

Temperature 20 readings
Min Max Average
13.57 °C 14.06 °C 13.72 °C

HUMIDITY

--

Humidity 20 readings
Min Max Average
65.99 % 67.83 % 66.91 %

View Latest 20 Readings

ID Sensor Location Temp Humid Bar Timestamp
24023 BME280 Lounge 14.06 67.64 1018.13 2020-08-06 10:07:43
24022 BME280 Lounge 13.98 67.83 1018.13 2020-08-06 09:57:42
24021 BME280 Lounge 13.90 67.83 1018.23 2020-08-06 09:47:40
24020 BME280 Lounge 13.73 67.65 1018.23 2020-08-06 09:37:39
24019 BME280 Lounge 13.63 67.64 1018.35 2020-08-06 09:27:38
24018 BME280 Lounge 13.60 67.48 1018.45 2020-08-06 09:17:37
24017 BME280 Lounge 13.58 67.34 1018.53 2020-08-06 09:07:36
24016 BME280 Lounge 13.57 67.20 1018.65 2020-08-06 08:57:35
24015 BME280 Lounge 13.57 67.10 1018.68 2020-08-06 08:47:34
24014 BME280 Lounge 13.57 66.90 1018.63 2020-08-06 08:37:33
24013 BME280 Lounge 13.57 66.81 1018.70 2020-08-06 08:27:31
24012 BME280 Lounge 13.57 66.75 1018.75 2020-08-06 08:17:30
24011 BME280 Lounge 13.61 66.59 1018.75 2020-08-06 08:07:29
24010 BME280 Lounge 13.61 66.51 1018.63 2020-08-06 07:57:23
24009 BME280 Lounge 13.65 66.39 1018.51 2020-08-06 07:47:16
24008 BME280 Lounge 13.69 66.27 1018.36 2020-08-06 07:37:10
24007 BME280 Lounge 13.76 66.16 1018.40 2020-08-06 07:27:04
24006 BME280 Lounge 13.85 66.04 1018.43 2020-08-06 07:16:57
24005 BME280 Lounge 13.91 66.03 1018.36 2020-08-06 07:06:51
24004 BME280 Lounge 13.98 65.99 1018.34 2020-08-06 06:56:44